Weather in Juazeiro do Norte

Brazil     7°12′50″S   39°19′03″W
temp.,
°C
wind,
m/s
gust,
m/s
humid.,
%
clouds,
%
prec.,
mm/h
press.,
hPa
HPBL,
m
11 april, sun
sun1100:00+21sse009153 0.1 101216
03:00+20s1191100 0.1 101127
06:00+21s129049 0.0 101281
09:00+25se356952 0.0 1014827
12:00+29se455226 0.1 10121562
15:00+24ssw228198 0.7 100941
18:00+22s378976 1.3 1011210
21:00+22s3986100 1.8 1013252
12 april, mon
mon1200:00+21ese1191100 0.1 101353
03:00+20ese1197100 0.6 101344
06:00+20s119765 1.0 101324
09:00+23e138298 1.0 1015423
12:00+30n245075 0.0 10121388
15:00+31nnw244299 0.0 10081392
18:00+25ssw226459 0.3 101162
21:00+23wsw127325 0.3 101339
13 april, tue
tue1300:00+22sse1180100 0.2 101425
03:00+20se1196100 1.3 101332
06:00+20se119776 0.6 101421
09:00+22ese1194100 0.6 101692
12:00+28se345546 0.0 10131220
15:00+32se244398 0.1 10101756
18:00+27ssw115763 0.0 101121
21:00+23se2269100 0.0 101324
14 april, wed
wed1400:00+23ese1173100 0.1 101313
03:00+20ne009657 3.5 101317
06:00+20sw119852 4.7 101430
09:00+26ene137264 5.4 1015723
12:00+30ene345143 0.6 10121796
15:00+30n124699 1.4 10091160
18:00+25sw1168100 0.2 101141
21:00+23sse1185100 0.9 101314
15 april, thu
thu1500:00+22ssw229494 1.1 101362
03:00+21sse1394100 1.2 101278
06:00+20sse1296100 0.2 101488
09:00+25se367291 0.2 1015803
12:00+28se455669 0.0 10131249
15:00+26ese3575100 0.9 1010627
18:00+22ssw2290100 1.4 101117
21:00+22se1188100 1.5 101329